^^
Saratoga-Weather Station Historical Data
Daily Summary for August 10, 2022 Units:  English    Metric   Both
Daily Weekly Monthly Yearly Custom
  High: Low: Average:
Temperature: 88.9 °F 64.9 °F 77.2 °F
Dew Point: 54.7 °F 46.9 °F 51.1 °F
Humidity: 63% 24% 42%
Wind Speed: 8.9mph 0mph 2.1mph
Wind Gust: 14mph - -
Wind- - SE
Pressure: 30.2 in 30.1 in -
Precipitation: 0 in    
Historical Graphs
 
 
Tabular Data for August 10, 2022
Time Temperature Dew Point Pressure Wind Wind Speed Wind Gust Humidity Rainfall Rate (Hourly) solar
00:04 73 °F 51.6 °F 30.2 in WSW 2 mph 4 mph 47% 0 in 0 W/m2
00:09 73 °F 51.6 °F 30.2 in WSW 2.9 mph 4 mph 47% 0 in 0 W/m2
00:14 73 °F 52.2 °F 30.2 in West 2.9 mph 3 mph 48% 0 in 0 W/m2
00:19 73 °F 52.2 °F 30.2 in West 2 mph 3 mph 48% 0 in 0 W/m2
00:24 72.9 °F 52 °F 30.2 in WSW 2.9 mph 3 mph 48% 0 in 0 W/m2
00:29 72.7 °F 52.3 °F 30.2 in West 0.9 mph 1 mph 49% 0 in 0 W/m2
00:34 72.5 °F 52.3 °F 30.2 in NW 0.9 mph 2 mph 49% 0 in 0 W/m2
00:39 72.3 °F 52.7 °F 30.2 in West 0.9 mph 3 mph 50% 0 in 0 W/m2
00:44 72 °F 52.9 °F 30.2 in SW 0.9 mph 2 mph 51% 0 in 0 W/m2
00:49 71.8 °F 53.2 °F 30.2 in WNW 0.9 mph 2 mph 52% 0 in 0 W/m2
00:54 71.4 °F 52.9 °F 30.2 in WSW 2 mph 3 mph 52% 0 in 0 W/m2
00:59 71.4 °F 53.4 °F 30.2 in Calm   2 mph 53% 0 in 0 W/m2
01:04 71.4 °F 53.4 °F 30.2 in West 2 mph 2 mph 53% 0 in 0 W/m2
01:09 71.2 °F 53.2 °F 30.2 in Calm   2 mph 53% 0 in 0 W/m2
01:14 71.1 °F 53.6 °F 30.2 in West 2 mph 3 mph 54% 0 in 0 W/m2
01:19 71.1 °F 53.6 °F 30.2 in WSW 0.9 mph 2 mph 54% 0 in 0 W/m2
01:25 70.9 °F 54 °F 30.2 in SW 0.9 mph 4 mph 55% 0 in 0 W/m2
01:30 70.9 °F 54 °F 30.2 in SW 0.9 mph 3 mph 55% 0 in 0 W/m2
01:35 70.7 °F 53.8 °F 30.2 in WSW 2 mph 3 mph 55% 0 in 0 W/m2
01:40 70.7 °F 53.8 °F 30.2 in WSW 2 mph 2 mph 55% 0 in 0 W/m2
01:45 70.5 °F 54.1 °F 30.2 in WSW 2 mph 2 mph 56% 0 in 0 W/m2
01:50 70.3 °F 54 °F 30.2 in WSW 2.9 mph 3 mph 56% 0 in 0 W/m2
01:55 70 °F 54 °F 30.2 in West 0.9 mph 3 mph 57% 0 in 0 W/m2
02:00 70.2 °F 53.8 °F 30.2 in Calm   1 mph 56% 0 in 0 W/m2
02:05 70.2 °F 53.8 °F 30.2 in WSW 2 mph 3 mph 56% 0 in 0 W/m2
02:10 70.2 °F 53.8 °F 30.2 in Calm   2 mph 56% 0 in 0 W/m2
02:15 70.2 °F 53.8 °F 30.2 in Calm   4 mph 56% 0 in 0 W/m2
02:20 70.3 °F 54 °F 30.2 in West 0.9 mph 2 mph 56% 0 in 0 W/m2
02:25 70.2 °F 54.1 °F 30.2 in Calm   3 mph 57% 0 in 0 W/m2
02:30 70 °F 54 °F 30.2 in Calm   3 mph 57% 0 in 0 W/m2
02:35 69.6 °F 54.1 °F 30.2 in WSW 2 mph 2 mph 58% 0 in 0 W/m2
02:40 69.3 °F 54.3 °F 30.2 in Calm   1 mph 59% 0 in 0 W/m2
02:45 68.7 °F 53.8 °F 30.2 in Calm   1 mph 59% 0 in 0 W/m2
02:50 68.5 °F 54.1 °F 30.2 in WSW 0.9 mph 2 mph 60% 0 in 0 W/m2
02:55 68.4 °F 54 °F 30.2 in Calm   1 mph 60% 0 in 0 W/m2
03:00 68.2 °F 54.1 °F 30.2 in SSW 0.9 mph 3 mph 61% 0 in 0 W/m2
03:05 67.8 °F 54 °F 30.2 in Calm   2 mph 61% 0 in 0 W/m2
03:10 67.6 °F 53.8 °F 30.2 in SSW 0.9 mph 3 mph 61% 0 in 0 W/m2
03:15 67.5 °F 53.6 °F 30.2 in Calm   1 mph 61% 0 in 0 W/m2
03:20 67.3 °F 53.8 °F 30.2 in SSW 0.9 mph 1 mph 62% 0 in 0 W/m2
03:25 67.3 °F 53.8 °F 30.2 in SSW 0.9 mph 2 mph 62% 0 in 0 W/m2
03:30 67.1 °F 53.6 °F 30.2 in SSW 0.9 mph 1 mph 62% 0 in 0 W/m2
03:35 66.9 °F 53.4 °F 30.2 in SSW 0.9 mph 2 mph 62% 0 in 0 W/m2
03:40 66.7 °F 53.2 °F 30.2 in SSW 2 mph 2 mph 62% 0 in 0 W/m2
03:45 66.7 °F 53.2 °F 30.2 in SSW 2 mph 2 mph 62% 0 in 0 W/m2
03:50 66.6 °F 53.1 °F 30.2 in Calm   2 mph 62% 0 in 0 W/m2
03:55 66.6 °F 53.1 °F 30.2 in SSW 0.9 mph 2 mph 62% 0 in 0 W/m2
04:00 66.4 °F 52.9 °F 30.2 in Calm   2 mph 62% 0 in 0 W/m2
04:05 66.2 °F 52.9 °F 30.2 in Calm   1 mph 62% 0 in 0 W/m2
04:10 66 °F 53.1 °F 30.2 in Calm   3 mph 63% 0 in 0 W/m2
04:15 65.8 °F 52.5 °F 30.2 in Calm   3 mph 62% 0 in 0 W/m2
04:20 65.8 °F 52.9 °F 30.2 in SSW 2 mph 2 mph 63% 0 in 0 W/m2
04:25 65.8 °F 52.5 °F 30.2 in SSW 0.9 mph 3 mph 62% 0 in 0 W/m2
04:30 65.7 °F 52.3 °F 30.2 in SSW 0.9 mph 1 mph 62% 0 in 0 W/m2
04:35 65.7 °F 52.3 °F 30.2 in SSW 0.9 mph 1 mph 62% 0 in 0 W/m2
04:40 65.7 °F 51.8 °F 30.2 in SW 0.9 mph 1 mph 61% 0 in 0 W/m2
04:45 65.8 °F 52.5 °F 30.2 in Calm   3 mph 62% 0 in 0 W/m2
04:50 66 °F 52.2 °F 30.2 in SW 2 mph 2 mph 61% 0 in 0 W/m2
04:55 65.8 °F 52 °F 30.2 in SW 0.9 mph 3 mph 61% 0 in 0 W/m2
05:00 65.7 °F 51.8 °F 30.2 in SW 0.9 mph 2 mph 61% 0 in 0 W/m2
05:05 65.7 °F 52.3 °F 30.2 in WSW 0.9 mph 1 mph 62% 0 in 0 W/m2
05:10 65.7 °F 51.8 °F 30.2 in WSW 0.9 mph 2 mph 61% 0 in 0 W/m2
05:15 65.5 °F 51.6 °F 30.2 in WSW 0.9 mph 1 mph 61% 0 in 0 W/m2
05:20 65.7 °F 51.8 °F 30.2 in Calm   2 mph 61% 0 in 0 W/m2
05:25 65.7 °F 51.8 °F 30.2 in West 0.9 mph 3 mph 61% 0 in 0 W/m2
05:30 65.7 °F 51.8 °F 30.2 in Calm   2 mph 61% 0 in 0 W/m2
05:35 65.5 °F 51.6 °F 30.2 in West 0.9 mph 3 mph 61% 0 in 0 W/m2
05:40 65.3 °F 51.4 °F 30.2 in SW 0.9 mph 3 mph 61% 0 in 0 W/m2
05:45 65.1 °F 51.8 °F 30.2 in Calm   1 mph 62% 0 in 0 W/m2
05:50 65.5 °F 51.6 °F 30.2 in Calm   3 mph 61% 0 in 0 W/m2
05:55 65.5 °F 51.6 °F 30.2 in Calm   2 mph 61% 0 in 0 W/m2
06:00 65.5 °F 51.6 °F 30.2 in Calm   1 mph 61% 0 in 0 W/m2
06:05 65.5 °F 51.3 °F 30.2 in WSW 0.9 mph 1 mph 60% 0 in 0 W/m2
06:10 65.5 °F 51.6 °F 30.2 in WSW 0.9 mph 2 mph 61% 0 in 0 W/m2
06:15 65.5 °F 51.3 °F 30.2 in Calm   2 mph 60% 0 in 0 W/m2
06:20 65.3 °F 51.4 °F 30.2 in WSW 0.9 mph 2 mph 61% 0 in 0 W/m2
06:26 65.1 °F 51.3 °F 30.2 in Calm   2 mph 61% 0 in 5 W/m2
06:31 64.9 °F 51.6 °F 30.2 in WSW 0.9 mph 2 mph 62% 0 in 7 W/m2
06:36 64.9 °F 51.1 °F 30.2 in Calm   1 mph 61% 0 in 9 W/m2
06:41 64.9 °F 51.1 °F 30.2 in WSW 2 mph 2 mph 61% 0 in 12 W/m2
06:46 64.9 °F 51.1 °F 30.2 in Calm   2 mph 61% 0 in 14 W/m2
06:51 64.9 °F 51.1 °F 30.2 in NW 2 mph 3 mph 61% 0 in 16 W/m2
06:56 65.3 °F 51.1 °F 30.2 in North 0.9 mph 2 mph 60% 0 in 18 W/m2
07:01 65.8 °F 51.1 °F 30.2 in West 2 mph 3 mph 59% 0 in 19 W/m2
07:06 66 °F 50.9 °F 30.2 in Calm   2 mph 58% 0 in 21 W/m2
07:11 66.4 °F 51.1 °F 30.2 in Calm   2 mph 58% 0 in 23 W/m2
07:16 66.6 °F 51.3 °F 30.2 in Calm   2 mph 58% 0 in 25 W/m2
07:21 66.7 °F 51.1 °F 30.2 in North 2 mph 4 mph 57% 0 in 26 W/m2
07:26 66.9 °F 51.3 °F 30.2 in Calm   5 mph 57% 0 in 26 W/m2
07:31 66.9 °F 51.3 °F 30.2 in Calm   2 mph 57% 0 in 67 W/m2
07:36 67.3 °F 51.4 °F 30.2 in SW 2.9 mph 5 mph 57% 0 in 88 W/m2
07:41 67.6 °F 51.4 °F 30.2 in Calm     56% 0 in 100 W/m2
07:46 68.4 °F 51.6 °F 30.2 in ESE 0.9 mph 3 mph 55% 0 in 116 W/m2
07:51 68.9 °F 52 °F 30.2 in NW 2.9 mph 3 mph 55% 0 in 130 W/m2
07:56 69.3 °F 51.4 °F 30.2 in Calm   3 mph 53% 0 in 144 W/m2
08:01 69.6 °F 51.8 °F 30.2 in NNE 0.9 mph 3 mph 53% 0 in 158 W/m2
08:06 70 °F 51.6 °F 30.2 in Calm   2 mph 52% 0 in 176 W/m2
08:11 70.5 °F 52 °F 30.2 in ENE 2 mph 3 mph 52% 0 in 190 W/m2
08:16 70.9 °F 51.8 °F 30.2 in East 2 mph 3 mph 51% 0 in 149 W/m2
08:21 71.1 °F 52 °F 30.2 in NW 2 mph 3 mph 51% 0 in 79 W/m2
08:26 70.9 °F 51.8 °F 30.2 in NW 2 mph 3 mph 51% 0 in 44 W/m2
08:31 70.9 °F 51.8 °F 30.2 in West 0.9 mph 4 mph 51% 0 in 44 W/m2
08:36 71.1 °F 52 °F 30.2 in NNE 4 mph 4 mph 51% 0 in 44 W/m2
08:41 71.4 °F 52.3 °F 30.2 in ENE 0.9 mph 4 mph 51% 0 in 44 W/m2
08:46 71.8 °F 52.2 °F 30.2 in NNW 2.9 mph 3 mph 50% 0 in 44 W/m2
08:51 72.1 °F 52.5 °F 30.2 in Calm   3 mph 50% 0 in 44 W/m2
08:56 72.5 °F 52.9 °F 30.2 in ENE 4 mph 4 mph 50% 0 in 44 W/m2
09:01 73 °F 53.2 °F 30.2 in Calm   2 mph 50% 0 in 44 W/m2
09:06 73.4 °F 52.5 °F 30.2 in East 0.9 mph 3 mph 48% 0 in 42 W/m2
09:11 73.6 °F 52.7 °F 30.2 in North 2 mph 4 mph 48% 0 in 46 W/m2
09:16 73.6 °F 52.7 °F 30.2 in Calm   2 mph 48% 0 in 46 W/m2
09:21 73.8 °F 52.9 °F 30.2 in NNE 0.9 mph 3 mph 48% 0 in 44 W/m2
09:26 74.1 °F 53.2 °F 30.2 in NNW 0.9 mph 2 mph 48% 0 in 46 W/m2
09:31 74.7 °F 53.1 °F 30.2 in East 0.9 mph 5 mph 47% 0 in 46 W/m2
09:36 74.8 °F 52.7 °F 30.2 in Calm   7 mph 46% 0 in 46 W/m2
09:41 74.8 °F 52.7 °F 30.2 in NNE 0.9 mph 3 mph 46% 0 in 47 W/m2
09:46 74.8 °F 53.2 °F 30.2 in ESE 4 mph 7 mph 47% 0 in 46 W/m2
09:51 75.4 °F 53.8 °F 30.2 in ENE 2 mph 9 mph 47% 0 in 47 W/m2
09:56 75.4 °F 53.2 °F 30.2 in ESE 0.9 mph 8 mph 46% 0 in 51 W/m2
10:01 75.7 °F 54.1 °F 30.2 in NNE 6 mph 6 mph 47% 0 in 51 W/m2
10:06 76.3 °F 53.4 °F 30.2 in NNE 4 mph 8 mph 45% 0 in 53 W/m2
10:11 76.8 °F 54.5 °F 30.2 in East 4.9 mph 6 mph 46% 0 in 239 W/m2
10:16 77.2 °F 53.6 °F 30.2 in NNW 0.9 mph 3 mph 44% 0 in 519 W/m2
10:21 77.5 °F 54 °F 30.2 in NNE 0.9 mph 6 mph 44% 0 in 536 W/m2
10:26 77.7 °F 54.1 °F 30.2 in NNW 2.9 mph 4 mph 44% 0 in 554 W/m2
10:31 78.3 °F 54.5 °F 30.2 in NE 4 mph 6 mph 44% 0 in 566 W/m2
10:36 79 °F 54 °F 30.2 in East 6 mph 7 mph 42% 0 in 575 W/m2
10:41 79.5 °F 53.8 °F 30.2 in East 6 mph 7 mph 41% 0 in 587 W/m2
10:46 79.9 °F 54.7 °F 30.2 in NE 2 mph 6 mph 42% 0 in 598 W/m2
10:51 80.1 °F 54.3 °F 30.2 in NE 2 mph 3 mph 41% 0 in 612 W/m2
10:56 80.6 °F 54.7 °F 30.2 in NE 0.9 mph 6 mph 41% 0 in 621 W/m2
11:01 81.1 °F 54.5 °F 30.2 in NE 6 mph 9 mph 40% 0 in 638 W/m2
11:06 81 °F 54.3 °F 30.2 in NNE 2.9 mph 4 mph 40% 0 in 645 W/m2
11:11 81.3 °F 54.7 °F 30.2 in NE 8.9 mph 11 mph 40% 0 in 654 W/m2
11:16 81.7 °F 54.3 °F 30.2 in ENE 4 mph 4 mph 39% 0 in 652 W/m2
11:21 82 °F 54 °F 30.2 in East 0.9 mph 7 mph 38% 0 in 673 W/m2
11:26 81.9 °F 52.3 °F 30.2 in ESE 4 mph 13 mph 36% 0 in 682 W/m2
11:31 82 °F 52.5 °F 30.2 in SE 8.1 mph 10 mph 36% 0 in 694 W/m2
11:36 82.4 °F 52 °F 30.2 in SE 2.9 mph 11 mph 35% 0 in 705 W/m2
11:41 82.8 °F 52.3 °F 30.2 in ENE 4 mph 10 mph 35% 0 in 712 W/m2
11:46 83.1 °F 52.7 °F 30.2 in ESE 2.9 mph 10 mph 35% 0 in 724 W/m2
11:51 82.9 °F 52.5 °F 30.2 in East 6.9 mph 12 mph 35% 0 in 735 W/m2
11:56 83.1 °F 51.8 °F 30.2 in East 4 mph 8 mph 34% 0 in 738 W/m2
12:01 83.5 °F 52.2 °F 30.2 in ENE 6 mph 12 mph 34% 0 in 745 W/m2
12:06 83.7 °F 52.3 °F 30.2 in ENE 8.9 mph 10 mph 34% 0 in 752 W/m2
12:11 83.7 °F 51.4 °F 30.2 in SE 2.9 mph 9 mph 33% 0 in 759 W/m2
12:16 83.7 °F 51.4 °F 30.2 in East 2.9 mph 10 mph 33% 0 in 768 W/m2
12:21 83.8 °F 51.6 °F 30.2 in ESE 2.9 mph 9 mph 33% 0 in 779 W/m2
12:26 84 °F 50.9 °F 30.2 in NE 4.9 mph 9 mph 32% 0 in 780 W/m2
12:31 84 °F 51.8 °F 30.2 in ENE 4 mph 10 mph 33% 0 in 789 W/m2
12:36 84.2 °F 52 °F 30.2 in NE 2.9 mph 7 mph 33% 0 in 800 W/m2
12:41 84.6 °F 52.3 °F 30.2 in SE 2.9 mph 10 mph 33% 0 in 800 W/m2
12:46 84.9 °F 51.8 °F 30.2 in ENE 2.9 mph 7 mph 32% 0 in 802 W/m2
12:51 85.1 °F 51.1 °F 30.2 in NE 4.9 mph 10 mph 31% 0 in 807 W/m2
12:56 85.3 °F 52.2 °F 30.2 in NE 4 mph 10 mph 32% 0 in 809 W/m2
13:01 85.3 °F 52.2 °F 30.2 in ESE 6 mph 8 mph 32% 0 in 810 W/m2
13:06 85.6 °F 50.7 °F 30.2 in ENE 2 mph 12 mph 30% 0 in 816 W/m2
13:11 85.1 °F 51.1 °F 30.2 in NE 6.9 mph 13 mph 31% 0 in 816 W/m2
13:16 84.9 °F 50.9 °F 30.2 in SE 2 mph 9 mph 31% 0 in 817 W/m2
13:21 85.5 °F 51.4 °F 30.1 in NE 4.9 mph 13 mph 31% 0 in 824 W/m2
13:26 85.5 °F 51.4 °F 30.1 in ESE 2 mph 6 mph 31% 0 in 830 W/m2
13:31 85.8 °F 50.7 °F 30.1 in SE 4 mph 12 mph 30% 0 in 835 W/m2
13:36 86.2 °F 51.1 °F 30.1 in ENE 2 mph 5 mph 30% 0 in 817 W/m2
13:41 85.8 °F 50.7 °F 30.1 in NE 4.9 mph 10 mph 30% 0 in 830 W/m2
13:46 85.6 °F 50.7 °F 30.1 in NE 6 mph 9 mph 30% 0 in 831 W/m2
13:51 85.5 °F 50.5 °F 30.1 in South 2.9 mph 7 mph 30% 0 in 830 W/m2
13:56 85.8 °F 51.6 °F 30.1 in ENE 4.9 mph 14 mph 31% 0 in 828 W/m2
14:01 86.2 °F 51.1 °F 30.1 in NE 4.9 mph 9 mph 30% 0 in 826 W/m2
14:06 85.8 °F 49.8 °F 30.1 in East 2.9 mph 12 mph 29% 0 in 826 W/m2
14:11 85.6 °F 50.7 °F 30.1 in North 4.9 mph 9 mph 30% 0 in 828 W/m2
14:16 86.2 °F 51.1 °F 30.1 in SE 2.9 mph 4 mph 30% 0 in 828 W/m2
14:21 86.4 °F 52.2 °F 30.1 in East 8.1 mph 8 mph 31% 0 in 821 W/m2
14:26 86.5 °F 51.4 °F 30.1 in ESE 2.9 mph 8 mph 30% 0 in 821 W/m2
14:31 86.9 °F 50.9 °F 30.1 in East 4 mph 9 mph 29% 0 in 823 W/m2
14:36 86.7 °F 49.6 °F 30.1 in NW 0.9 mph 5 mph 28% 0 in 819 W/m2
14:41 86.7 °F 50.7 °F 30.1 in SE 2 mph 7 mph 29% 0 in 821 W/m2
14:46 86.9 °F 49.8 °F 30.1 in ESE 2 mph 11 mph 28% 0 in 826 W/m2
14:51 87.1 °F 50.9 °F 30.1 in ENE 4.9 mph 6 mph 29% 0 in 819 W/m2
14:56 87.3 °F 50.2 °F 30.1 in ENE 2 mph 6 mph 28% 0 in 812 W/m2
15:01 87.3 °F 50.2 °F 30.1 in ESE 6.9 mph 9 mph 28% 0 in 807 W/m2
15:06 87.1 °F 50.9 °F 30.1 in SE 2.9 mph 7 mph 29% 0 in 800 W/m2
15:11 87.1 °F 50 °F 30.1 in East 4 mph 12 mph 28% 0 in 800 W/m2
15:16 86.9 °F 49.8 °F 30.1 in ENE 4.9 mph 11 mph 28% 0 in 796 W/m2
15:21 86.7 °F 50.7 °F 30.1 in ENE 2.9 mph 9 mph 29% 0 in 789 W/m2
15:26 87.1 °F 50 °F 30.1 in ENE 8.9 mph 9 mph 28% 0 in 779 W/m2
15:31 87.3 °F 50.2 °F 30.1 in ESE 2.9 mph 9 mph 28% 0 in 773 W/m2
15:36 87.6 °F 50.5 °F 30.1 in NE 2.9 mph 7 mph 28% 0 in 768 W/m2
15:41 87.6 °F 49.5 °F 30.1 in NNW 2 mph 4 mph 27% 0 in 766 W/m2
15:46 88 °F 50.7 °F 30.1 in ENE 2 mph 8 mph 28% 0 in 756 W/m2
15:51 88.3 °F 50.2 °F 30.1 in East 6 mph 9 mph 27% 0 in 745 W/m2
15:56 88.2 °F 48.9 °F 30.1 in NE 2.9 mph 13 mph 26% 0 in 737 W/m2
16:01 88 °F 48.7 °F 30.1 in NE 4.9 mph 11 mph 26% 0 in 721 W/m2
16:06 88.2 °F 50 °F 30.1 in ESE 2.9 mph 13 mph 27% 0 in 717 W/m2
16:11 88.3 °F 50.2 °F 30.1 in ENE 4.9 mph 10 mph 27% 0 in 710 W/m2
16:16 88.2 °F 48.9 °F 30.1 in NE 4.9 mph 9 mph 26% 0 in 694 W/m2
16:21 87.8 °F 48.6 °F 30.1 in ENE 4 mph 7 mph 26% 0 in 687 W/m2
16:26 88 °F 49.8 °F 30.1 in SE 2 mph 7 mph 27% 0 in 677 W/m2
16:32 88.3 °F 49.1 °F 30.1 in East 2 mph 10 mph 26% 0 in 668 W/m2
16:37 88.3 °F 50.2 °F 30.1 in ENE 4.9 mph 5 mph 27% 0 in 657 W/m2
16:42 88.5 °F 49.3 °F 30.1 in SE 2.9 mph 7 mph 26% 0 in 650 W/m2
16:47 88.7 °F 49.5 °F 30.1 in East 2 mph 6 mph 26% 0 in 642 W/m2
16:52 88.9 °F 49.6 °F 30.1 in East 4 mph 7 mph 26% 0 in 631 W/m2
16:57 88.5 °F 49.3 °F 30.1 in SE 2 mph 7 mph 26% 0 in 622 W/m2
17:02 88.7 °F 49.5 °F 30.1 in ENE 6.9 mph 9 mph 26% 0 in 606 W/m2
17:07 88.5 °F 49.3 °F 30.1 in ESE 2.9 mph 9 mph 26% 0 in 592 W/m2
17:12 88.5 °F 49.3 °F 30.1 in ESE 4 mph 11 mph 26% 0 in 580 W/m2
17:17 88.7 °F 49.5 °F 30.1 in NE 4 mph 9 mph 26% 0 in 570 W/m2
17:22 88.5 °F 49.3 °F 30.1 in ESE 8.1 mph 8 mph 26% 0 in 557 W/m2
17:27 88.3 °F 49.1 °F 30.1 in NE 2 mph 5 mph 26% 0 in 547 W/m2
17:32 88.5 °F 49.3 °F 30.1 in ENE 4.9 mph 9 mph 26% 0 in 536 W/m2
17:37 88.3 °F 48 °F 30.1 in NE 2.9 mph 6 mph 25% 0 in 519 W/m2
17:42 88.5 °F 49.3 °F 30.1 in East 2.9 mph 4 mph 26% 0 in 506 W/m2
17:47 88.9 °F 49.6 °F 30.1 in ESE 2 mph 4 mph 26% 0 in 496 W/m2
17:52 88.9 °F 49.6 °F 30.1 in East 4 mph 6 mph 26% 0 in 480 W/m2
17:57 88.3 °F 49.1 °F 30.1 in NE 2 mph 7 mph 26% 0 in 464 W/m2
18:02 88.3 °F 49.1 °F 30.1 in East 6.9 mph 7 mph 26% 0 in 452 W/m2
18:07 88.2 °F 47.8 °F 30.1 in NNE 2.9 mph 10 mph 25% 0 in 439 W/m2
18:12 88.2 °F 48.9 °F 30.1 in East 4 mph 10 mph 26% 0 in 424 W/m2
18:17 88.3 °F 49.1 °F 30.1 in NE 2.9 mph 8 mph 26% 0 in 406 W/m2
18:22 88.5 °F 48.2 °F 30.1 in ESE 2.9 mph 10 mph 25% 0 in 396 W/m2
18:27 88.3 °F 46.9 °F 30.1 in NNE 2.9 mph 5 mph 24% 0 in 376 W/m2
18:32 88.2 °F 47.8 °F 30.1 in NNE 4 mph 8 mph 25% 0 in 366 W/m2
18:37 87.6 °F 48.6 °F 30.1 in ESE 2 mph 7 mph 26% 0 in 350 W/m2
18:42 87.6 °F 48.6 °F 30.1 in ESE 0.9 mph 4 mph 26% 0 in 338 W/m2
18:47 87.6 °F 48.6 °F 30.1 in SE 2 mph 3 mph 26% 0 in 323 W/m2
18:52 87.4 °F 48.4 °F 30.1 in SE 0.9 mph 8 mph 26% 0 in 308 W/m2
18:57 87.4 °F 48.4 °F 30.1 in NE 4 mph 6 mph 26% 0 in 287 W/m2
19:02 87.4 °F 47.3 °F 30.1 in ESE 2 mph 11 mph 25% 0 in 265 W/m2
19:07 87.3 °F 47.1 °F 30.1 in ENE 2 mph 4 mph 25% 0 in 137 W/m2
19:12 87.1 °F 48 °F 30.1 in ESE 2.9 mph 11 mph 26% 0 in 88 W/m2
19:17 86.9 °F 47.8 °F 30.1 in SE 2.9 mph 5 mph 26% 0 in 49 W/m2
19:22 86.5 °F 47.7 °F 30.1 in East 4.9 mph 6 mph 26% 0 in 46 W/m2
19:27 86.5 °F 48.6 °F 30.1 in ENE 2.9 mph 6 mph 27% 0 in 42 W/m2
19:32 86.4 °F 48.4 °F 30.1 in ESE 6.9 mph 8 mph 27% 0 in 40 W/m2
19:37 86.2 °F 49.3 °F 30.1 in ENE 2.9 mph 4 mph 28% 0 in 39 W/m2
19:42 86 °F 49.1 °F 30.1 in SE 0.9 mph 3 mph 28% 0 in 37 W/m2
19:47 86 °F 48.2 °F 30.1 in ESE 2.9 mph 4 mph 27% 0 in 37 W/m2
19:52 85.6 °F 48.7 °F 30.1 in South 2 mph 9 mph 28% 0 in 33 W/m2
19:57 85.5 °F 48.6 °F 30.1 in SE 2 mph 7 mph 28% 0 in 32 W/m2
20:02 85.3 °F 48.6 °F 30.1 in East 2 mph 9 mph 28% 0 in 30 W/m2
20:07 85.3 °F 49.5 °F 30.1 in East 2 mph 3 mph 29% 0 in 30 W/m2
20:12 84.9 °F 48.2 °F 30.1 in SE 0.9 mph 10 mph 28% 0 in 28 W/m2
20:17 84.6 °F 47.8 °F 30.1 in East 2 mph 5 mph 28% 0 in 25 W/m2
20:22 84.4 °F 48.7 °F 30.1 in ESE 0.9 mph 10 mph 29% 0 in 21 W/m2
20:27 83.8 °F 48.2 °F 30.1 in SSE 2.9 mph 3 mph 29% 0 in 19 W/m2
20:32 83.5 °F 48.7 °F 30.1 in ESE 0.9 mph 2 mph 30% 0 in 16 W/m2
20:37 82.9 °F 48.4 °F 30.1 in ENE 2 mph 7 mph 30% 0 in 14 W/m2
20:42 82.4 °F 48.7 °F 30.1 in Calm   3 mph 31% 0 in 11 W/m2
20:47 82 °F 48.4 °F 30.1 in SE 0.9 mph 1 mph 31% 0 in 9 W/m2
20:52 81.3 °F 48.6 °F 30.1 in Calm   1 mph 32% 0 in 7 W/m2
20:57 80.8 °F 50.5 °F 30.1 in ENE 0.9 mph 3 mph 35% 0 in 5 W/m2
21:02 80.1 °F 50 °F 30.1 in Calm   1 mph 35% 0 in 0 W/m2
21:07 79.5 °F 48.7 °F 30.1 in Calm   1 mph 34% 0 in 0 W/m2
21:12 79 °F 48.9 °F 30.1 in Calm     35% 0 in 0 W/m2
21:17 78.6 °F 47.8 °F 30.1 in NE 0.9 mph 6 mph 34% 0 in 0 W/m2
21:22 78.4 °F 48.6 °F 30.1 in Calm   1 mph 35% 0 in 0 W/m2
21:27 78.3 °F 48.4 °F 30.1 in ENE 2.9 mph 6 mph 35% 0 in 0 W/m2
21:32 78.1 °F 48.2 °F 30.1 in Calm   2 mph 35% 0 in 0 W/m2
21:37 77.7 °F 47.1 °F 30.1 in NE 0.9 mph 4 mph 34% 0 in 0 W/m2
21:42 77.5 °F 48.6 °F 30.1 in Calm   1 mph 36% 0 in 0 W/m2
21:47 77.2 °F 48.2 °F 30.1 in Calm   1 mph 36% 0 in 0 W/m2
21:52 76.8 °F 47.8 °F 30.1 in ESE 2 mph 2 mph 36% 0 in 0 W/m2
21:57 76.5 °F 47.5 °F 30.1 in ENE 0.9 mph 4 mph 36% 0 in 0 W/m2
22:02 76.5 °F 48.2 °F 30.1 in Calm   1 mph 37% 0 in 0 W/m2
22:07 76.1 °F 48.6 °F 30.1 in ENE 0.9 mph 4 mph 38% 0 in 0 W/m2
22:12 75.7 °F 48.4 °F 30.1 in Calm   1 mph 38% 0 in 0 W/m2
22:17 75.6 °F 48.9 °F 30.1 in Calm   2 mph 39% 0 in 0 W/m2
22:22 75 °F 48.4 °F 30.1 in Calm   1 mph 39% 0 in 0 W/m2
22:27 74.8 °F 48.9 °F 30.1 in ESE 0.9 mph 2 mph 40% 0 in 0 W/m2
22:32 74.5 °F 48.6 °F 30.1 in Calm   1 mph 40% 0 in 0 W/m2
22:37 74.1 °F 48.9 °F 30.1 in Calm     41% 0 in 0 W/m2
22:42 73.6 °F 49.1 °F 30.1 in Calm   1 mph 42% 0 in 0 W/m2
22:47 73.2 °F 48.7 °F 30.1 in Calm     42% 0 in 0 W/m2
22:52 72.9 °F 48.4 °F 30.1 in Calm     42% 0 in 0 W/m2
22:57 72.5 °F 49.3 °F 30.1 in Calm     44% 0 in 0 W/m2
23:02 72.1 °F 49.1 °F 30.1 in Calm     44% 0 in 0 W/m2
23:07 71.8 °F 49.3 °F 30.1 in Calm     45% 0 in 0 W/m2
23:12 71.4 °F 49.6 °F 30.1 in Calm     46% 0 in 0 W/m2
23:17 71.1 °F 49.3 °F 30.1 in Calm     46% 0 in 0 W/m2
23:23 70.7 °F 48.9 °F 30.1 in Calm   1 mph 46% 0 in 0 W/m2
23:28 70.5 °F 48.7 °F 30.1 in ESE 0.9 mph 2 mph 46% 0 in 0 W/m2
23:33 70.3 °F 49.1 °F 30.1 in Calm   1 mph 47% 0 in 0 W/m2
23:38 70.2 °F 48.9 °F 30.1 in Calm   2 mph 47% 0 in 0 W/m2
23:43 70 °F 48.7 °F 30.1 in Calm   1 mph 47% 0 in 0 W/m2
23:48 69.8 °F 49.3 °F 30.1 in ESE 0.9 mph 2 mph 48% 0 in 0 W/m2
23:53 69.6 °F 49.1 °F 30.1 in ESE 0.9 mph 1 mph 48% 0 in 0 W/m2
23:58 69.4 °F 48.9 °F 30.1 in Calm   1 mph 48% 0 in 0 W/m2
Juneau County Weather
Compliments of Weather Underground - 4 mb